• In India
  • List of Countries
  • For 7 days
  • Water Temperature
  • Satellite Maps
  • Weather Map
  • Weather Widgets
  • user-avatar
    Login

    Hourly Weather Gjirokaster

    Today, 25 November, Saturday

    Time Temperature Precipitation Wind Pressure Humidity
    00:00 +2°C° 0 mm 1 mps 653 mmHg 81%
    01:00 +2°C° 0 mm 1 mps 653 mmHg 80%
    02:00 +2°C° 0 mm 1 mps 653 mmHg 80%
    03:00 +2°C° 0 mm 1 mps 653 mmHg 80%
    04:00 +2°C° 0 mm 1 mps 652 mmHg 79%
    05:00 +2°C° 0 mm 1 mps 652 mmHg 79%
    06:00 +2°C° 0 mm 1 mps 652 mmHg 78%
    07:00 +2°C° 0 mm 1 mps 652 mmHg 78%
    08:00 +3°C° 0 mm 1 mps 653 mmHg 71%
    09:00 +5°C° 0 mm 1 mps 653 mmHg 65%
    10:00 +7°C° 0 mm 1 mps 653 mmHg 58%
    11:00 +8°C° 0 mm 1 mps 653 mmHg 57%
    12:00 +8°C° 0 mm 1 mps 653 mmHg 56%
    13:00 +9°C° 0 mm 1 mps 653 mmHg 54%
    14:00 +8°C° 0 mm 1 mps 653 mmHg 60%
    15:00 +7°C° 0 mm 1 mps 652 mmHg 66%
    16:00 +6°C° 0 mm 1 mps 652 mmHg 72%
    17:00 +5°C° 0 mm 1 mps 652 mmHg 77%
    18:00 +4°C° 0 mm 1 mps 652 mmHg 81%
    19:00 +3°C° 0 mm 1 mps 652 mmHg 85%
    20:00 +3°C° 0 mm 1 mps 652 mmHg 86%
    21:00 +2°C° 0 mm 2 mps 652 mmHg 87%
    22:00 +2°C° 0 mm 2 mps 652 mmHg 88%
    23:00 +1°C° 0 mm 2 mps 652 mmHg 88%

    Tomorrow, 26 November, Sunday

    Time Temperature Precipitation Wind Pressure Humidity
    00:00 +1°C° 0 mm 2 mps 652 mmHg 89%
    01:00 0°C° 0 mm 3 mps 652 mmHg 89%
    02:00 0°C° 0 mm 3 mps 651 mmHg 89%
    03:00 0°C° 0 mm 3 mps 651 mmHg 88%
    04:00 -1°C° 0 mm 4 mps 651 mmHg 88%
    05:00 -1°C° 0 mm 4 mps 651 mmHg 88%
    06:00 0°C° 0 mm 4 mps 651 mmHg 88%
    07:00 0°C° 0 mm 4 mps 651 mmHg 88%
    08:00 +1°C° 0 mm 4 mps 651 mmHg 85%
    09:00 +4°C° 0 mm 4 mps 652 mmHg 83%
    10:00 +5°C° 0 mm 5 mps 652 mmHg 80%
    11:00 +5°C° 0 mm 5 mps 651 mmHg 80%
    12:00 +6°C° 0 mm 5 mps 651 mmHg 79%
    13:00 +6°C° 0 mm 5 mps 651 mmHg 79%
    14:00 +6°C° 0.1 mm 5 mps 650 mmHg 81%
    15:00 +5°C° 0.1 mm 5 mps 650 mmHg 84%
    16:00 +5°C° 0.1 mm 5 mps 650 mmHg 87%
    17:00 +3°C° 0.7 mm 5 mps 650 mmHg 88%
    18:00 +4°C° 0.7 mm 4 mps 650 mmHg 90%
    19:00 +4°C° 0.7 mm 4 mps 649 mmHg 91%
    20:00 +3°C° 1.2 mm 4 mps 649 mmHg 91%
    21:00 +3°C° 1.2 mm 4 mps 649 mmHg 91%
    22:00 +3°C° 1.2 mm 4 mps 649 mmHg 91%
    23:00 +3°C° 1 mm 4 mps 649 mmHg 92%

    Day after tomorrow, 27 November, Monday

    Time Temperature Precipitation Wind Pressure Humidity
    00:00 +3°C° 1 mm 4 mps 648 mmHg 93%
    01:00 +3°C° 1 mm 4 mps 648 mmHg 94%
    02:00 +3°C° 1.6 mm 3 mps 647 mmHg 94%
    03:00 +3°C° 1.6 mm 3 mps 647 mmHg 95%
    04:00 +4°C° 1.6 mm 2 mps 646 mmHg 96%
    05:00 +4°C° 1.4 mm 2 mps 646 mmHg 95%
    06:00 +4°C° 1.4 mm 2 mps 646 mmHg 94%
    07:00 +4°C° 1.4 mm 2 mps 646 mmHg 94%
    08:00 +4°C° 0.6 mm 2 mps 647 mmHg 90%
    09:00 +5°C° 0.6 mm 2 mps 647 mmHg 86%
    10:00 +5°C° 0.6 mm 2 mps 647 mmHg 82%
    11:00 +5°C° 0.8 mm 2 mps 647 mmHg 80%
    12:00 +5°C° 0.8 mm 2 mps 647 mmHg 78%
    13:00 +4°C° 0.8 mm 3 mps 647 mmHg 76%
    14:00 +4°C° 0.6 mm 3 mps 646 mmHg 78%
    15:00 +3°C° 0.6 mm 3 mps 646 mmHg 81%
    16:00 +3°C° 0.6 mm 2 mps 646 mmHg 84%
    17:00 +3°C° 0.4 mm 2 mps 646 mmHg 85%
    18:00 +2°C° 0.4 mm 2 mps 646 mmHg 87%
    19:00 +1°C° 0.4 mm 3 mps 647 mmHg 88%
    20:00 +1°C° 0.3 mm 3 mps 647 mmHg 88%
    21:00 +1°C° 0.3 mm 3 mps 647 mmHg 88%
    22:00 0°C° 0.3 mm 3 mps 647 mmHg 88%
    23:00 0°C° 0.2 mm 3 mps 647 mmHg 87%

    28 November, Tuesday

    Time Temperature Precipitation Wind Pressure Humidity
    00:00 -1°C° 0.2 mm 4 mps 647 mmHg 87%
    01:00 -1°C° 0.2 mm 4 mps 647 mmHg 86%
    02:00 -2°C° 0.1 mm 4 mps 647 mmHg 86%
    03:00 -1°C° 0.1 mm 3 mps 647 mmHg 86%
    04:00 -1°C° 0.1 mm 3 mps 647 mmHg 85%
    05:00 -1°C° 0 mm 3 mps 647 mmHg 85%
    06:00 -2°C° 0 mm 3 mps 647 mmHg 85%
    07:00 -2°C° 0 mm 3 mps 647 mmHg 85%
    08:00 -1°C° 0 mm 3 mps 647 mmHg 79%
    09:00 0°C° 0 mm 3 mps 648 mmHg 73%
    10:00 +1°C° 0 mm 3 mps 648 mmHg 68%
    11:00 +1°C° 0 mm 3 mps 648 mmHg 66%
    12:00 +2°C° 0 mm 3 mps 648 mmHg 64%
    13:00 +2°C° 0 mm 3 mps 648 mmHg 63%
    14:00 +1°C° 0 mm 3 mps 648 mmHg 66%
    15:00 +1°C° 0 mm 3 mps 648 mmHg 69%
    16:00 0°C° 0 mm 3 mps 648 mmHg 72%
    17:00 -1°C° 0 mm 3 mps 648 mmHg 74%
    18:00 -1°C° 0 mm 3 mps 648 mmHg 77%
    19:00 -2°C° 0 mm 2 mps 648 mmHg 79%
    20:00 -2°C° 0 mm 2 mps 648 mmHg 79%
    21:00 -3°C° 0 mm 2 mps 648 mmHg 78%
    22:00 -3°C° 0 mm 2 mps 648 mmHg 78%
    23:00 -3°C° 0 mm 2 mps 648 mmHg 77%

    29 November, Wednesday

    Time Temperature Precipitation Wind Pressure Humidity
    00:00 -3°C° 0 mm 2 mps 648 mmHg 77%
    01:00 -3°C° 0 mm 2 mps 649 mmHg 76%
    02:00 -3°C° 0 mm 2 mps 649 mmHg 77%
    03:00 -1°C° 0 mm 1 mps 649 mmHg 77%
    04:00 0°C° 0 mm 1 mps 649 mmHg 78%
    05:00 -1°C° 0 mm 1 mps 649 mmHg 80%
    06:00 -1°C° 0 mm 1 mps 649 mmHg 83%
    07:00 -1°C° 0 mm 1 mps 649 mmHg 85%
    08:00 -1°C° 0 mm 2 mps 650 mmHg 80%
    09:00 +1°C° 0 mm 2 mps 650 mmHg 76%
    10:00 +1°C° 0 mm 3 mps 651 mmHg 71%
    11:00 +2°C° 0 mm 3 mps 651 mmHg 68%
    12:00 +2°C° 0 mm 3 mps 651 mmHg 66%
    13:00 +3°C° 0 mm 4 mps 650 mmHg 63%
    14:00 +1°C° 0 mm 4 mps 650 mmHg 68%
    15:00 +1°C° 0 mm 4 mps 650 mmHg 73%
    16:00 0°C° 0 mm 4 mps 650 mmHg 78%
    17:00 0°C° 0 mm 5 mps 650 mmHg 80%
    18:00 -1°C° 0 mm 5 mps 650 mmHg 81%
    19:00 -1°C° 0 mm 5 mps 650 mmHg 83%
    20:00 -1°C° 0 mm 5 mps 650 mmHg 82%
    21:00 -1°C° 0 mm 5 mps 650 mmHg 82%
    22:00 -2°C° 0 mm 6 mps 650 mmHg 82%
    23:00 -2°C° 0.2 mm 6 mps 650 mmHg 82%

    30 November, Thursday

    Time Temperature Precipitation Wind Pressure Humidity
    00:00 -1°C° 0.2 mm 6 mps 650 mmHg 83%
    01:00 -1°C° 0.2 mm 6 mps 650 mmHg 83%
    02:00 -1°C° 0.5 mm 6 mps 649 mmHg 85%
    03:00 +1°C° 0.5 mm 6 mps 649 mmHg 88%
    04:00 +1°C° 0.5 mm 6 mps 649 mmHg 90%
    05:00 +1°C° 0.6 mm 6 mps 649 mmHg 90%
    06:00 0°C° 0.6 mm 7 mps 649 mmHg 91%
    07:00 0°C° 0.6 mm 7 mps 649 mmHg 92%
    08:00 +2°C° 0.6 mm 7 mps 649 mmHg 92%
    09:00 +2°C° 0.6 mm 7 mps 649 mmHg 92%
    10:00 +2°C° 0.6 mm 8 mps 649 mmHg 93%
    11:00 +2°C° 0.3 mm 8 mps 649 mmHg 92%
    12:00 +4°C° 0.3 mm 8 mps 649 mmHg 91%
    13:00 +5°C° 0.3 mm 8 mps 648 mmHg 91%
    14:00 +5°C° 0.3 mm 8 mps 648 mmHg 92%
    15:00 +5°C° 0.3 mm 8 mps 648 mmHg 92%
    16:00 +5°C° 0.3 mm 8 mps 648 mmHg 93%
    17:00 +5°C° 0.2 mm 8 mps 648 mmHg 93%
    18:00 +5°C° 0.2 mm 8 mps 648 mmHg 93%
    19:00 +5°C° 0.2 mm 8 mps 648 mmHg 93%
    20:00 +5°C° 0.5 mm 8 mps 648 mmHg 94%
    21:00 +5°C° 0.5 mm 8 mps 648 mmHg 94%
    22:00 +5°C° 0.5 mm 8 mps 648 mmHg 94%
    23:00 +5°C° 1.5 mm 7 mps 648 mmHg 94%
    Show more